This is the latest recevied weather packets stored in our database for station/object KA3BQE-13. If no packets are shown the sender has not sent any weather packets the latest 10 day(s).
| Time | Temp. | Humidity | Pressure | Rain* | Wind** | Luminosity | Snow |
|---|---|---|---|---|---|---|---|
| 1777557360 | 11.11° C | 68% | 1019.8 hPa | 0 mm | - | 380 W/m² | - |
| 1777557057 | 10.56° C | 67% | 1019.7 hPa | 0 mm | - | 356 W/m² | - |
| 1777556752 | 10.56° C | 68% | 1019.7 hPa | 0 mm | - | 342 W/m² | - |
| 1777556450 | 10.56° C | 69% | 1019.8 hPa | 0 mm | - | 317 W/m² | - |
| 1777556149 | 10.56° C | 72% | 1019.7 hPa | 0 mm | - | 302 W/m² | - |
| 1777555845 | 9.44° C | 72% | 1019.8 hPa | 0 mm | - | 275 W/m² | - |
| 1777555540 | 9.44° C | 74% | 1019.5 hPa | 0 mm | - | 233 W/m² | - |
| 1777555238 | 9.44° C | 76% | 1019.5 hPa | 0 mm | - | 229 W/m² | - |
| 1777554935 | 8.89° C | 77% | 1019.5 hPa | 0 mm | - | 254 W/m² | - |
| 1777554631 | 8.89° C | 76% | 1019.3 hPa | 0 mm | - | 191 W/m² | - |
| 1777554328 | 8.89° C | 78% | 1019.4 hPa | 0 mm | - | 170 W/m² | - |
| 1777554025 | 7.78° C | 77% | 1019.6 hPa | 0 mm | - | 173 W/m² | - |
| 1777553721 | 7.78° C | 77% | 1019.3 hPa | 0 mm | - | 148 W/m² | - |
| 1777553418 | 7.78° C | 77% | 1019.3 hPa | 0 mm | - | 118 W/m² | - |
| 1777553115 | 7.78° C | 76% | 1019.3 hPa | 0 mm | - | 110 W/m² | - |
| 1777552814 | 7.78° C | 77% | 1019.3 hPa | 0 mm | - | 113 W/m² | - |
| 1777552510 | 7.22° C | 77% | 1019.4 hPa | 0 mm | - | 94 W/m² | - |
| 1777552207 | 7.22° C | 81% | 1019.4 hPa | 0 mm | - | 86 W/m² | - |
| 1777551904 | 7.22° C | 80% | 1019.2 hPa | 0 mm | - | 79 W/m² | - |
| 1777551601 | 6.67° C | 81% | 1019.2 hPa | 0 mm | - | 74 W/m² | - |
| 1777551299 | 6.11° C | 84% | 1019.2 hPa | 0 mm | - | 69 W/m² | - |
| 1777550995 | 5.56° C | 86% | 1019.1 hPa | 0 mm | - | 63 W/m² | - |
| 1777550692 | 5° C | 91% | 1018.9 hPa | 0 mm | - | 58 W/m² | - |
| 1777550388 | 4.44° C | 98% | 1018.7 hPa | 0 mm | - | 54 W/m² | - |
| 1777550084 | 4.44° C | 99% | 1018.7 hPa | 0 mm | - | 48 W/m² | - |
* Rain latest hour (hover to see other rain measurements)
** Current wind speed in m/s (hover to see current wind gust speed)